Regional Weather Roundup
Issued by NWS

Home | Current Version | Previous Version | Graphics & Text | Print | Product List | Glossary On
Versions: 1 2 3 4 5 6 7 8 9 10 11 12 13 14 15 16 17 18 19 20 21 22 23 24 25 26 27 28 29 30 31 32 33 34 35 36 37 38 39 40 41 42 43 44 45 46 47 48 49 50
498
ASUS43 KDMX 222306
RWRIA

WEATHER ROUNDUP FOR IOWA
NATIONAL WEATHER SERVICE DES MOINES IA
600 PM CDT SAT APR 22 2017

NOTE: "FAIR" INDICATES FEW OR NO CLOUDS BELOW 12,000 FEET WITH NO
SIGNIFICANT WEATHER AND/OR OBSTRUCTIONS TO VISIBILITY.

* - THESE STATIONS ARE NOT NWS STATIONS...THUS NOT UNDER NWS
QUALITY CONTROL.  THEY ALSO DO NOT REPORT WEATHER SUCH
AS PRECIPITATION OR FOG.

IAZ001>003-012>014-020>022-031>034-043>046-230000-
   NORTHWEST IOWA

CITY           SKY/WX    TMP DP  RH WIND       PRES   REMARKS
CARROLL *      SUNNY     66  28  24 NE6       30.18R
CHEROKEE *     SUNNY     66  33  29 NW6       30.18S
DENISON *      SUNNY     64  32  29 NE6       30.20R
LE MARS *      SUNNY     66  32  28 CALM      30.20S
ORANGE CITY *  SUNNY     64  37  36 W8        30.19S
SHELDON *      SUNNY     66  30  26 CALM      30.17S
SIOUX CITY     SUNNY     67  34  29 NW6       30.19S
SPENCER        SUNNY     67  32  27 N5        30.18S
STORM LAKE *   SUNNY     64  30  27 VRB7      30.18S
$$

IAZ055>058-069>071-079>083-090>094-230000-
   SOUTHWEST IOWA

CITY           SKY/WX    TMP DP  RH WIND       PRES   REMARKS
ATLANTIC *     SUNNY     64  27  24 NE10      30.17S
AUDUBON *      SUNNY     64  21  19 N7        30.19R
CLARINDA *     CLOUDY    66  30  26 VRB7G15   30.18F
COUNCIL BLFS * SUNNY     64  34  32 NE10      30.18S
CRESTON *      CLOUDY    63  28  27 NE9G17    30.17S
HARLAN  *      SUNNY     66  28  24 N8G17     30.21S
LAMONI         CLOUDY    62  32  32 NE13      30.15S
RED OAK *      SUNNY     64  34  32 NE12      30.17S
SHENANDOAH *   SUNNY     66  32  28 E8G16     30.17S
$$

IAZ047>049-059>061-072>074-084-230000-
   CENTRAL IOWA

CITY           SKY/WX    TMP DP  RH WIND       PRES   REMARKS
AMES           SUNNY     66  29  24 E9        30.17R
ANKENY *       SUNNY     66  28  24 E9G20     30.17S
BOONE *        SUNNY     64  30  27 NE9G15    30.16S
CHARITON *     CLOUDY    63  28  27 NE9       30.15S
DES MOINES     MOSUNNY   67  24  19 NE14      30.16S
GRINNELL*      SUNNY     64  24  21 NE9       30.18R
KNOXVILLE *    SUNNY     64  23  20 NE8       30.15S
MARSHALLTOWN   SUNNY     65  27  23 NE9       30.16S
NEWTON *       SUNNY     64  25  22 NE12      30.16R
PELLA *        SUNNY     65  25  21 NE8       30.17R
PERRY *          N/A     66  23  19 NE7       30.17S
$$

IAZ004>006-015-016-023>025-035-036-230000-
   NORTH CENTRAL IOWA

CITY           SKY/WX    TMP DP  RH WIND       PRES   REMARKS
ALGONA *       SUNNY     66  32  28 VRB3      30.17S
CLARION *      SUNNY     66  30  26 N6        30.17S
ESTHERVILLE    SUNNY     66  34  30 N7        30.17S
FORT DODGE *   SUNNY     66  32  28 N5        30.18S
MASON CITY     SUNNY     65  28  24 CALM      30.18S
FOREST CITY *    N/A     64  32  29 N5        30.17S
WEBSTER CITY * SUNNY     66  30  26 NE5G14    30.15S
IOWA FALLS *     N/A     66  29  24 NE9       30.19R
$$

IAZ007>011-017>019-026>030-037>042-050>054-066-230000-
   NORTHEAST IOWA

CITY           SKY/WX    TMP DP  RH WIND       PRES   REMARKS
CEDAR RAPIDS   SUNNY     64  28  25 N13G20    30.15S
CHARLES CITY * SUNNY     64  28  25 N7        30.17S
CLINTON *      SUNNY     62  33  33 N10G16    30.16R
DECORAH *      SUNNY     63  27  25 N6        30.15S
DUBUQUE        SUNNY     62  30  29 NE9       30.16F
MONTICELLO *   SUNNY     63  28  27 NE7       30.16S
OELWEIN *      SUNNY     64  30  27 NE9       30.17S
WATERLOO       SUNNY     66  29  24 N7        30.16S
$$

IAZ064-065-067-068-078-230000-
   EAST CENTRAL IOWA

CITY           SKY/WX    TMP DP  RH WIND       PRES   REMARKS
DAVENPORT      SUNNY     63  32  31 NE12G20   30.15S
IOWA CITY      SUNNY     65  32  29 NE13G18   30.16S
MT. PLEASANT * SUNNY     63  28  27 NE13G21   30.14S
MUSCATINE *    SUNNY     64  30  27 NE13      30.15S
QUAD CITIES    SUNNY     64  29  26 NE12      30.14R
$$

IAZ062-063-075>077-085>089-095>099-230000-
   SOUTHEAST IOWA

CITY           SKY/WX    TMP DP  RH WIND       PRES   REMARKS
BURLINGTON     SUNNY     63  35  35 NE14      30.12R
FAIRFIELD *    CLOUDY    63  28  27 NE14      30.14S
FORT MADISON * CLOUDY    64  36  34 NE12      30.13S
KEOKUK *       MOSUNNY   63  34  34 NE9G17    30.11S
OSKALOOSA *      N/A     64  27  25 NE14      30.15S
CENTERVILLE *    N/A     61  28  29 NE10G18   30.16R
OTTUMWA        CLOUDY    64  28  25 NE14      30.15R
WASHINGTON *   SUNNY     64  30  27 NE14      30.16S
$$

ABBREVIATIONS USED IN REMARKS
   TC - TEMPERATURES IN CELSIUS
  WCI - WIND CHILL INDEX
   HX - HEAT INDEX
  VSB - VISIBILITY
$$





USA.gov is the U.S. government's official web portal to all federal, state and local government web resources and services.